Location: Perryvale
(54.4667°N, 113.3833°W)
Time: 21:26:07
(UTC+00:00)

Transit 2A - Pass Details

Date: 25 May 2024
Orbit: 592 x 959 km, 66.7° (Epoch: 19 June)

Event Time Altitude Azimuth Distance (km) Brightness Sun altitude
Rises 08:09:04 0° 263° (W) 3,059 9.0 -14.0°
Reaches altitude 10° 08:11:33 10° 275° (W) 2,202 8.3 -14.0°
Maximum altitude 08:16:01 31° 337° (NNW) 1,335 7.9 -13.8°
Drops below altitude 10° 08:20:55 10° 39° (NE) 2,429 9.6 -13.7°
Sets 08:23:48 0° 49° (NE) 3,429 10.3 -13.6°
